Meteo Giornale » Osservazioni meteo Svizzera » Emmen

ore: 18:20 - Osservazioni Meteo Emmen
Lat. 47° 6' N Lon. 8° 18' E Alt. 427 metri s.l.m.

sereno Europe/Zurich

23 °C

Sereno

Temp. 24 Ore

9 °C

23 °C

Nord

3.7 Km/h

Dew point 11 °C

Umidità 46 %

Visibilità  10 Km

Il sole sorge alle ore 06:09

Il sole tramonta alle ore 20:55

Data e Ora Cielo e Fenomeni T °C DP °C Um. % Pres. hPa Vis. km Vento km/h
Oggi h: 18:20 sereno Sereno 23 11 46 1017 10 N 3.7
Oggi h: 17:50 sereno Sereno 23 12 49 1017 10 NE 9.3
Oggi h: 17:20 sereno Sereno 22 12 53 1017 10 E 9.3
Oggi h: 16:50 sereno Sereno 22 12 53 1017 10 E/NE 9.3
Oggi h: 16:20 sereno Sereno 22 11 49 1017 10 N/NE 7.4
Oggi h: 15:50 sereno Sereno 22 12 53 1017 10 N 3.7
Oggi h: 15:20 sereno Sereno 22 12 53 1018 10 N 7.4
Oggi h: 14:50 sereno Sereno 21 12 56 1017 10 N 5.5
Oggi h: 14:20 sereno Sereno 20 11 56 1018 10 N 5.5
Oggi h: 13:50 sereno Sereno 21 12 56 1018 10 N 5.5
Oggi h: 13:20 sereno Sereno 20 13 64 1018 10 N 5.5
Oggi h: 12:50 sereno Sereno 19 12 63 1018 10 E 7.4
Oggi h: 12:20 sereno Sereno 17 12 72 1019 10 N 5.5
Oggi h: 11:50 sereno Sereno 17 12 72 1019 10 N 5.5
Oggi h: 11:20 sereno Sereno 16 12 77 1019 10 N 5.5
Oggi h: 10:50 sereno Sereno 15 12 82 1019 10 E 7.4
Oggi h: 10:20 sereno Sereno 15 12 82 1019 10 N 5.5
Oggi h: 09:50 sereno Sereno 13 13 100 1019 7 N 5.5
Oggi h: 09:20 foschia Foschia 12 12 100 1019 4 N 5.5
Oggi h: 08:50 nebbia Nebbia 11 11 100 1019 0.4 N 3.7
Oggi h: 08:20 nebbia Nebbia 11 11 100 1019 0.3 N 0
Oggi h: 07:50 nebbia Nebbia 11 10 93 1019 0.25 N 0
Oggi h: 07:20 nebbia Nebbia 11 11 100 1019 0.55 N 1.8
Oggi h: 05:50 nebbia Nebbia 10 10 100 1019 0.45 N 0
Oggi h: 05:20 nebbia Nebbia 10 10 100 1019 0.5 N 1.8
Oggi h: 04:50 nebbia Nebbia 9 9 100 1019 0.6 N 0
Oggi h: 03:50 foschia Foschia 9 9 100 1019 3 N 0
Oggi h: 03:20 nebbia Banco di Nebbia 10 10 100 1019 4 N 1.8
Oggi h: 02:50 sereno Sereno 11 11 100 1019 6 N 0
Oggi h: 02:20 nebbia Nebbia 11 11 100 1019 2 N 0
Oggi h: 01:50 foschia Foschia 11 11 100 1019 7 N 0
Oggi h: 01:20 sereno Sereno 11 11 100 1019 10 N 0
Oggi h: 00:50 sereno Sereno 11 10 93 1019 10 N 0
Oggi h: 00:20 sereno Sereno 12 11 93 1019 10 N 3.7
Ieri h: 23:50 sereno Sereno 12 11 93 1019 10 N 3.7
Ieri h: 23:20 sereno Sereno 13 12 93 1019 10 N 1.8
Ieri h: 22:50 sereno Sereno 13 13 100 1019 10 N 0
Ieri h: 21:50 sereno Sereno 14 13 93 1019 10 N 0
Ieri h: 21:20 sereno Sereno 14 13 93 1019 10 N 0
Ieri h: 20:50 sereno Sereno 15 13 87 1019 10 N 0
Ieri h: 20:20 sereno Sereno 15 13 87 1019 10 N 0
Ieri h: 19:50 sereno Sereno 15 12 82 1019 10 N 3.7
Ieri h: 19:20 sereno Sereno 16 13 82 1019 10 N 0
Ieri h: 18:50 sereno Sereno 16 12 77 1019 10 N 0